sat.trackr.live / text

‹ back to catalog

STARLINK-1331

NORAD 45578 · 2020-025AZ

PAYLOAD ACTIVE UNKNOWN

§ Identity

Operator
Country
US
Launch date
2020-04-22
Launch site
AFETR
Launch vehicle
Mass (kg)
RCS (m²)

Purposes: comms

External: N2YO · Heavens-Above · Gunter

§ Orbital elements

Epoch: 2026-09-20T03:41:13.513632Z

Period
91.03 min
Inclination
53.0394°
Eccentricity
0.0004713
Mean motion
15.81906317 rev/d
Perigee alt
321.9 km
Apogee alt
328.2 km
Semi-major
6,703.2 km
B*
4.2470e-4
RAAN
189.9316°
Arg perigee
82.4109°
Mean anomaly
277.7448°
Rev number
35,614

§ Raw data

STARLINK-13311 45578U 20025AZ  26263.15362863  .00088187  00000+0  42470-3 0  99922 45578  53.0394 189.9316 0004713  82.4109 277.7448 15.81906317356140

JSON: /api/v1/satellites/45578 · /tle

For live sub-satellite position, see the globe view (requires WebGL).

§ Visibility from observer

Set your observer location to see the next 7 days of passes ≥ 10°. The values pass through the URL so the page stays shareable.

No JS? Fill the form by hand. The geolocation button needs JavaScript.